Terminal Aerodrome Forecast
Issued by NWS Lubbock, TX

Current Version | Previous Version | Text Only | Print | Product List | Glossary On
Versions: 1 2 3 4 5 6 7 8 9 10 11 12 13 14 15 16 17
000
FTUS44 KLUB 210431 AAA
TAFLBB
TAF AMD
KLBB 210431Z 2105/2124 24015KT P6SM SKC
     FM211700 27020G30KT 4SM BLDU FEW250=

USA.gov is the U.S. government's official web portal to all federal, state and local government web resources and services.